Satellite: AAUSAT2
Catalog number: 32788
Epoch time:      08185.45854560
Element set:      83
Inclination:      097.9892 deg
RA of node:       245.3157 deg
Eccentricity:    0.0017146
Arg of perigee:   087.1409 deg
Mean anomaly:     273.1770 deg
Mean motion:   14.81538022 rev/day
Decay rate:       2.01e-06 rev/day^2
Epoch rev:             981
Checksum:              310

Satellite: DO-64
Catalog number: 32789
Epoch time:      08185.19409293
Element set:      91
Inclination:      097.9915 deg
RA of node:       245.0650 deg
Eccentricity:    0.0017043
Arg of perigee:   085.0649 deg
Mean anomaly:     275.2509 deg
Mean motion:   14.81420074 rev/day
Decay rate:       2.55e-06 rev/day^2
Epoch rev:             977
Checksum:              323

Satellite: SEEDS
Catalog number: 32791
Epoch time:      08185.46961033
Element set:      80
Inclination:      097.9924 deg
RA of node:       245.3288 deg
Eccentricity:    0.0017425
Arg of perigee:   083.0539 deg
Mean anomaly:     277.2659 deg
Mean motion:   14.81287901 rev/day
Decay rate:       3.33e-06 rev/day^2
Epoch rev:             978
Checksum:              324

Satellite: CANX-2
Catalog number: 32797
Epoch time:      08185.99315246
Element set:      39
Inclination:      097.9927 deg
RA of node:       245.9090 deg
Eccentricity:    0.0018648
Arg of perigee:   087.4436 deg
Mean anomaly:     272.8703 deg
Mean motion:   14.81803165 rev/day
Decay rate:      1.795e-05 rev/day^2
Epoch rev:             857
Checksum:              351

Satellite: RS-30
Catalog number: 32953
Epoch time:      08185.74931631
Element set:      46
Inclination:      082.5016 deg
RA of node:       113.2902 deg
Eccentricity:    0.0017722
Arg of perigee:   216.9653 deg
Mean anomaly:     143.0210 deg
Mean motion:   12.42996973 rev/day
Decay rate:        1.0e-07 rev/day^2
Epoch rev:             510
Checksum:              263

/EX






More information about the Keps mailing list